"startDT [UTC]","vpos","CH4 [ppm]","stdev(CH4) [ppm]","CO2 [ppm]","stdev(CO2) [ppm]","H2O [ppm]","stdev(H2O)","p_LGR [torr]","T_LGR [C]","mt1_LGR [us]","mt2_LGR [us]","T_ECpre [C]","T_EC1 [C]","T_EC2 [C]","p_inlet [hPa]","p_in [hPa]","p_out [hPa]","T_inlet [C]","RH_inlet [%]","dwpt_inlet [C]","T_vent [C]","RH_vent [%]","dwpt_vent [C]","flow_vent [l min-1]","flow_inlet [l min-1]","dwpt_sample [C]","T_room [C]"
2012-04-23 00:00:00,0.0,1.9184,0.0009,402.60,0.47,317.6,33.4,138.11,28.99,24.62,36.35,0.04,-272.74,-272.73,-56,566,-926,24.8,5.1,-17.3,24.7,5.3,-16.8,5.73,2.30,-22.8,27.8
2012-04-23 00:01:00,0.0,1.9184,0.0009,402.72,0.47,309.0,33.9,138.11,29.00,24.62,36.36,0.04,-272.74,-272.74,-56,566,-925,24.8,5.0,-17.3,24.7,5.2,-16.9,5.73,2.42,-22.8,27.8
2012-04-23 00:02:00,0.0,1.9186,0.0009,402.75,0.45,312.5,29.0,138.11,29.00,24.62,36.35,0.04,-272.74,-272.74,-56,566,-926,24.8,5.0,-17.4,24.7,5.2,-17.0,5.73,2.23,-22.8,27.7
2012-04-23 00:03:00,0.0,1.9184,0.0007,402.61,0.36,315.6,33.3,138.11,29.00,24.62,36.36,0.04,-272.74,-272.73,-56,566,-925,24.8,5.0,-17.4,24.7,5.2,-17.1,5.73,2.39,-22.8,27.7
2012-04-23 00:04:00,0.0,1.9183,0.0010,402.71,0.38,307.2,34.6,138.11,29.01,24.62,36.35,0.04,-272.74,-272.74,-56,567,-926,24.8,5.0,-17.5,24.8,5.1,-17.1,5.73,2.34,-22.8,27.7
2012-04-23 00:05:00,0.0,1.9186,0.0010,402.77,0.40,306.1,28.6,138.11,29.01,24.62,36.36,0.04,-272.74,-272.74,-56,567,-925,24.8,5.0,-17.5,24.8,5.2,-17.1,5.73,2.25,-22.7,27.6
2012-04-23 00:06:00,0.0,1.9185,0.0009,402.69,0.40,315.4,34.7,138.11,29.01,24.62,36.35,0.04,-272.74,-272.74,-56,567,-926,24.9,5.0,-17.4,24.8,5.2,-17.0,5.73,2.42,-22.8,27.7
2012-04-23 00:07:00,0.0,1.9185,0.0008,402.60,0.46,316.9,34.8,138.11,29.02,24.62,36.35,0.04,-272.74,-272.73,-56,567,-926,24.9,4.9,-17.5,24.8,5.1,-17.2,5.73,2.26,-22.7,27.7
2012-04-23 00:08:00,0.0,1.9185,0.0008,402.65,0.38,316.9,23.3,138.10,29.02,24.62,36.35,0.04,-272.74,-272.74,-56,566,-926,24.9,4.9,-17.5,24.8,5.1,-17.1,5.73,2.33,-22.7,27.7
2012-04-23 00:09:00,0.0,1.9185,0.0008,402.63,0.42,304.8,35.6,138.10,29.02,24.62,36.36,0.04,-272.73,-272.73,-56,567,-926,24.9,5.0,-17.5,24.8,5.1,-17.1,5.73,2.39,-22.7,27.7
2012-04-23 00:10:00,0.0,1.9187,0.0007,402.72,0.47,316.0,32.1,138.10,29.03,24.62,36.35,0.04,-272.73,-272.73,-56,566,-926,24.9,5.0,-17.4,24.8,5.1,-17.1,5.73,2.24,-22.7,27.7
2012-04-23 00:11:00,0.0,1.9183,0.0008,402.70,0.42,314.6,33.0,138.11,29.03,24.62,36.35,0.04,-272.74,-272.74,-56,567,-926,24.9,5.0,-17.5,24.8,5.1,-17.1,5.73,2.41,-22.7,27.7
2012-04-23 00:12:00,0.0,1.9179,0.0009,402.71,0.43,316.0,35.0,138.10,29.04,24.62,36.35,0.04,-272.74,-272.74,-56,566,-926,24.9,5.0,-17.5,24.8,5.1,-17.1,5.73,2.31,-22.7,27.7
2012-04-23 00:13:00,0.0,1.9179,0.0011,402.63,0.36,325.6,35.4,138.10,29.04,24.62,36.36,0.04,-272.73,-272.74,-56,567,-926,24.9,4.9,-17.5,24.8,5.1,-17.1,5.73,2.27,-22.7,27.8
2012-04-23 00:14:00,0.0,1.9178,0.0009,402.67,0.42,323.9,34.3,138.10,29.04,24.63,36.36,0.04,-272.74,-272.74,-56,567,-926,24.9,4.9,-17.5,24.8,5.1,-17.1,5.73,2.43,-22.7,27.7
2012-04-23 00:15:00,0.0,1.9180,0.0009,402.64,0.52,331.4,35.9,138.10,29.05,24.62,36.36,0.04,-272.74,-272.74,-56,567,-926,24.9,4.9,-17.6,24.9,5.1,-17.1,5.73,2.25,-22.7,27.8
2012-04-23 00:16:00,0.0,1.9178,0.0009,402.63,0.43,321.0,28.0,138.10,29.05,24.62,36.35,0.04,-272.73,-272.74,-56,567,-926,24.9,4.9,-17.6,24.9,5.1,-17.2,5.73,2.36,-22.7,27.9
2012-04-23 00:17:00,0.0,1.9179,0.0008,402.61,0.43,311.2,35.0,138.10,29.06,24.63,36.36,0.04,-272.74,-272.74,-56,567,-926,24.9,4.9,-17.6,24.9,5.1,-17.2,5.73,2.38,-22.7,27.8
2012-04-23 00:18:00,0.0,1.9176,0.0009,402.65,0.40,313.3,35.6,138.10,29.06,24.63,36.35,0.04,-272.74,-272.74,-56,567,-926,24.9,4.8,-17.7,24.9,5.0,-17.3,5.73,2.24,-22.7,27.8
2012-04-23 00:19:00,0.0,1.9178,0.0008,402.70,0.39,316.6,27.4,138.10,29.07,24.62,36.36,0.04,-272.74,-272.74,-56,567,-926,25.0,4.8,-17.7,24.9,5.0,-17.3,5.73,2.41,-22.7,27.8
2012-04-23 00:20:00,0.0,1.9180,0.0008,402.55,0.47,316.5,28.2,138.10,29.08,24.62,36.36,0.04,-272.73,-272.73,-56,567,-926,24.9,4.8,-17.7,24.9,5.0,-17.4,5.73,2.30,-22.6,27.8
2012-04-23 00:21:00,0.0,1.9178,0.0010,402.77,0.38,319.5,25.5,138.10,29.08,24.63,36.35,0.04,-272.74,-272.74,-56,567,-926,24.9,4.8,-17.9,24.9,5.0,-17.4,5.73,2.28,-22.6,27.7
2012-04-23 00:22:00,0.0,1.9179,0.0008,402.71,0.39,323.4,32.3,138.10,29.08,24.62,36.35,0.04,-272.74,-272.74,-56,567,-926,24.9,4.8,-17.8,24.9,5.0,-17.4,5.73,2.42,-22.6,27.8
2012-04-23 00:23:00,0.0,1.9175,0.0009,402.71,0.44,330.6,35.9,138.10,29.09,24.63,36.36,0.04,-272.73,-272.74,-56,567,-926,24.9,4.8,-17.7,24.9,5.0,-17.3,5.73,2.25,-22.7,27.8
2012-04-23 00:24:00,0.0,1.9177,0.0010,402.84,0.41,326.0,33.2,138.10,29.09,24.62,36.35,0.04,-272.74,-272.74,-56,567,-926,25.0,4.8,-17.8,24.9,5.0,-17.3,5.73,2.35,-22.6,27.8
2012-04-23 00:25:00,0.0,1.9178,0.0011,402.61,0.40,321.9,29.1,138.10,29.10,24.62,36.36,0.04,-272.74,-272.74,-56,568,-926,25.0,4.8,-17.8,24.9,4.9,-17.5,5.73,2.39,-22.6,27.9
2012-04-23 00:26:00,0.0,1.9173,0.0009,402.78,0.32,326.5,36.6,138.10,29.11,24.63,36.35,0.04,-272.74,-272.74,-56,567,-926,25.0,4.8,-17.8,24.9,4.9,-17.4,5.73,2.24,-22.6,27.9
2012-04-23 00:27:00,0.0,1.9176,0.0011,402.75,0.40,331.0,29.6,138.10,29.11,24.62,36.36,0.04,-272.73,-272.74,-56,567,-926,25.0,4.8,-17.8,24.9,4.9,-17.5,5.73,2.39,-22.6,27.9
2012-04-23 00:28:00,0.0,1.9176,0.0008,402.79,0.39,329.4,34.0,138.10,29.12,24.62,36.36,0.04,-272.74,-272.74,-57,567,-926,25.0,4.8,-17.8,25.0,5.0,-17.4,5.73,2.34,-22.6,27.8
2012-04-23 00:29:00,0.0,1.9175,0.0009,402.65,0.41,321.8,33.9,138.10,29.13,24.62,36.35,0.04,-272.74,-272.74,-56,567,-926,25.0,4.8,-17.8,25.0,4.9,-17.5,5.73,2.25,-22.6,27.9
2012-04-23 00:30:00,0.0,1.9175,0.0008,402.55,0.36,321.3,34.2,138.10,29.13,24.62,36.36,0.04,-272.73,-272.73,-57,567,-926,25.0,4.8,-17.9,25.0,4.9,-17.5,5.73,2.42,-22.6,27.9
2012-04-23 00:31:00,0.0,1.9173,0.0009,402.68,0.34,322.0,31.1,138.10,29.14,24.62,36.36,0.04,-272.74,-272.74,-56,568,-926,25.0,4.7,-17.9,25.0,4.9,-17.5,5.73,2.28,-22.6,27.9
2012-04-23 00:32:00,0.0,1.9173,0.0010,402.72,0.45,329.9,29.8,138.10,29.14,24.62,36.36,0.04,-272.74,-272.74,-56,568,-926,25.0,4.7,-17.9,25.0,4.9,-17.4,5.73,2.30,-22.6,27.9
2012-04-23 00:33:00,0.0,1.9177,0.0008,402.63,0.40,323.8,26.0,138.10,29.15,24.62,36.36,0.04,-272.74,-272.74,-56,568,-926,25.1,4.7,-17.9,25.0,4.9,-17.5,5.73,2.42,-22.6,27.9
2012-04-23 00:34:00,0.0,1.9178,0.0009,402.67,0.40,323.3,34.6,138.10,29.15,24.62,36.37,0.04,-272.73,-272.74,-56,567,-926,25.0,4.7,-18.0,25.0,4.9,-17.4,5.73,2.25,-22.6,27.9
2012-04-23 00:35:00,0.0,1.9175,0.0010,402.67,0.40,324.4,39.8,138.10,29.16,24.62,36.36,0.04,-272.74,-272.74,-57,568,-926,25.0,4.6,-18.2,25.0,4.8,-17.7,5.73,2.34,-22.6,27.9
2012-04-23 00:36:00,0.0,1.9175,0.0010,402.67,0.46,324.5,26.5,138.10,29.16,24.62,36.36,0.04,-272.73,-272.73,-56,568,-926,25.1,4.6,-18.3,25.0,4.7,-17.9,5.73,2.40,-22.6,27.8
2012-04-23 00:37:00,0.0,1.9176,0.0010,402.67,0.35,317.3,32.1,138.10,29.17,24.62,36.36,0.04,-272.73,-272.73,-56,568,-926,25.1,4.6,-18.3,25.0,4.7,-17.9,5.73,2.24,-22.6,27.8
2012-04-23 00:38:00,0.0,1.9173,0.0008,402.63,0.53,333.1,37.7,138.10,29.17,24.62,36.36,0.04,-272.74,-272.74,-56,567,-926,25.1,4.5,-18.4,25.0,4.7,-18.0,5.73,2.36,-22.6,27.7
2012-04-23 00:39:00,0.0,1.9169,0.0010,402.58,0.43,323.1,28.5,138.10,29.18,24.63,36.36,0.04,-272.74,-272.74,-56,568,-926,25.0,4.5,-18.4,25.1,4.7,-18.0,5.73,2.37,-22.6,27.8
2012-04-23 00:40:00,0.0,1.9169,0.0010,402.59,0.42,329.9,27.2,138.10,29.19,24.63,36.37,0.04,-272.73,-272.74,-57,567,-926,25.1,4.5,-18.5,25.1,4.7,-18.0,5.73,2.24,-22.6,27.8
2012-04-23 00:41:00,0.0,1.9171,0.0009,402.60,0.43,325.9,31.9,138.10,29.19,24.62,36.36,0.04,-272.73,-272.74,-56,568,-926,25.1,4.5,-18.5,25.1,4.6,-18.3,5.73,2.40,-22.6,27.9
2012-04-23 00:42:00,0.0,1.9169,0.0009,402.52,0.38,335.9,30.2,138.10,29.20,24.63,36.37,0.04,-272.74,-272.74,-56,568,-926,25.1,4.5,-18.5,25.1,4.6,-18.2,5.73,2.33,-22.6,28.0
2012-04-23 00:43:00,0.0,1.9167,0.0008,402.73,0.37,331.1,29.3,138.10,29.20,24.63,36.36,0.04,-272.73,-272.73,-56,568,-926,25.1,4.5,-18.5,25.1,4.6,-18.1,5.73,2.25,-22.6,28.0
2012-04-23 00:44:00,0.0,1.9168,0.0007,402.63,0.44,337.4,35.8,138.10,29.21,24.63,36.36,0.04,-272.73,-272.74,-56,568,-926,25.1,4.5,-18.4,25.1,4.7,-18.0,5.73,2.42,-22.6,28.0
2012-04-23 00:45:00,0.0,1.9171,0.0009,402.52,0.39,325.3,29.8,138.10,29.21,24.62,36.36,0.04,-272.74,-272.74,-57,568,-926,25.1,4.5,-18.4,25.1,4.7,-18.0,5.73,2.29,-22.6,28.0
2012-04-23 00:46:00,0.0,1.9168,0.0008,402.57,0.38,331.0,31.2,138.10,29.22,24.62,36.37,0.04,-272.74,-272.74,-56,568,-926,25.1,4.5,-18.4,25.1,4.7,-17.9,5.73,2.29,-22.6,28.0
2012-04-23 00:47:00,0.0,1.9168,0.0009,402.58,0.38,331.3,28.5,138.10,29.22,24.63,36.36,0.04,-272.73,-272.74,-57,568,-927,25.1,4.5,-18.3,25.1,4.7,-17.9,5.73,2.42,-22.6,28.0
2012-04-23 00:48:00,0.0,1.9170,0.0009,402.68,0.42,328.9,30.2,138.10,29.23,24.62,36.36,0.04,-272.74,-272.74,-56,568,-926,25.1,4.5,-18.4,25.1,4.7,-18.0,5.73,2.25,-22.6,28.0
2012-04-23 00:49:00,0.0,1.9171,0.0009,402.59,0.41,326.9,29.7,138.10,29.23,24.62,36.36,0.04,-272.74,-272.74,-56,568,-926,25.1,4.5,-18.3,25.1,4.7,-17.9,5.73,2.33,-22.6,28.0
2012-04-23 00:50:00,0.0,1.9170,0.0009,402.46,0.37,333.2,26.7,138.10,29.24,24.62,36.36,0.04,-272.74,-272.74,-57,568,-926,25.2,4.6,-18.1,25.1,4.7,-17.8,5.73,2.40,-22.6,28.0
2012-04-23 00:51:00,0.0,1.9170,0.0009,402.74,0.40,326.1,28.1,138.10,29.25,24.62,36.36,0.04,-272.74,-272.74,-56,568,-926,25.2,4.5,-18.3,25.2,4.7,-17.8,5.73,2.23,-22.6,28.0
2012-04-23 00:52:00,0.0,1.9169,0.0010,402.55,0.32,328.3,38.2,138.10,29.26,24.62,36.36,0.04,-272.74,-272.74,-57,568,-926,25.2,4.6,-18.2,25.2,4.7,-17.8,5.73,2.37,-22.6,28.1
2012-04-23 00:53:00,0.0,1.9171,0.0009,402.60,0.36,325.3,33.9,138.10,29.26,24.62,36.36,0.04,-272.73,-272.74,-56,568,-926,25.2,4.5,-18.3,25.2,4.7,-17.8,5.73,2.36,-22.6,28.1
2012-04-23 00:54:00,0.0,1.9170,0.0009,402.53,0.38,323.2,29.9,138.10,29.27,24.62,36.36,0.04,-272.73,-272.74,-57,568,-926,25.2,4.6,-18.1,25.2,4.7,-17.8,5.73,2.24,-22.6,28.1
2012-04-23 00:55:00,0.0,1.9167,0.0008,402.56,0.42,321.4,33.2,138.10,29.27,24.62,36.36,0.04,-272.74,-272.74,-56,568,-926,25.2,4.6,-18.1,25.2,4.8,-17.7,5.73,2.40,-22.5,28.1
2012-04-23 00:56:00,0.0,1.9168,0.0008,402.52,0.45,325.5,33.2,138.09,29.28,24.62,36.36,0.04,-272.74,-272.74,-56,568,-927,25.2,4.6,-18.2,25.1,4.8,-17.8,5.73,2.34,-22.5,28.1
2012-04-23 00:57:00,0.0,1.9173,0.0009,402.58,0.44,329.4,32.9,138.10,29.29,24.62,36.36,0.04,-272.73,-272.73,-57,568,-926,25.2,4.5,-18.2,25.2,4.7,-17.7,5.73,2.24,-22.6,28.1
2012-04-23 00:58:00,0.0,1.9170,0.0009,402.62,0.36,329.9,30.6,138.09,29.29,24.62,36.36,0.04,-272.74,-272.74,-56,568,-926,25.2,4.6,-18.1,25.2,4.7,-17.8,5.73,2.41,-22.6,28.1
2012-04-23 00:59:00,0.0,1.9170,0.0009,402.63,0.39,329.4,36.9,138.10,29.30,24.63,36.35,0.04,-272.74,-272.74,-57,568,-926,25.2,4.5,-18.2,25.2,4.7,-17.7,5.73,2.30,-22.6,28.1
2012-04-23 01:00:00,0.0,1.9169,0.0010,402.68,0.44,328.6,36.1,138.10,29.30,24.62,36.36,0.04,-272.73,-272.74,-56,568,-927,25.2,4.6,-18.1,25.2,4.8,-17.7,5.73,2.27,-22.5,28.0
2012-04-23 01:01:00,0.0,1.9170,0.0009,402.63,0.39,330.8,35.1,138.09,29.31,24.63,36.36,0.04,-272.74,-272.73,-56,568,-926,25.2,4.6,-18.1,25.2,4.8,-17.7,5.73,2.42,-22.5,28.0
2012-04-23 01:02:00,0.0,1.9168,0.0010,402.59,0.34,314.9,35.3,138.09,29.31,24.62,36.36,0.04,-272.74,-272.74,-57,568,-926,25.3,4.6,-18.1,25.2,4.8,-17.7,5.73,2.28,-22.5,28.0
2012-04-23 01:03:00,0.0,1.9175,0.0010,402.67,0.43,328.8,40.9,138.09,29.32,24.62,36.35,0.04,-272.73,-272.74,-56,568,-927,25.3,4.6,-18.0,25.2,4.8,-17.6,5.73,2.29,-22.6,28.1
2012-04-23 01:04:00,0.0,1.9170,0.0009,402.63,0.33,319.0,25.7,138.09,29.33,24.62,36.36,0.04,-272.74,-272.73,-57,568,-926,25.3,4.6,-18.0,25.2,4.8,-17.7,5.73,2.42,-22.6,28.1
2012-04-23 01:05:00,0.0,1.9169,0.0009,402.73,0.40,321.9,34.1,138.09,29.33,24.62,36.36,0.04,-272.73,-272.74,-56,568,-927,25.3,4.6,-18.1,25.2,4.8,-17.6,5.73,2.25,-22.6,28.1
2012-04-23 01:06:00,0.0,1.9168,0.0010,402.70,0.36,336.6,34.6,138.09,29.34,24.62,36.35,0.04,-272.74,-272.74,-56,568,-926,25.3,4.6,-18.1,25.2,4.8,-17.7,5.73,2.33,-22.5,28.2
2012-04-23 01:07:00,0.0,1.9168,0.0009,402.74,0.42,324.4,31.0,138.09,29.34,24.62,36.35,0.04,-272.73,-272.74,-57,568,-927,25.3,4.5,-18.1,25.2,4.7,-17.7,5.73,2.40,-22.6,28.2
2012-04-23 01:08:00,0.0,1.9168,0.0009,402.66,0.44,327.3,33.8,138.09,29.35,24.63,36.36,0.04,-272.73,-272.74,-56,569,-926,25.3,4.5,-18.2,25.3,4.7,-17.8,5.73,2.24,-22.6,28.1
2012-04-23 01:09:00,0.0,1.9165,0.0008,402.53,0.37,321.2,33.1,138.09,29.36,24.62,36.36,0.04,-272.74,-272.74,-57,568,-927,25.3,4.6,-18.1,25.3,4.7,-17.8,5.73,2.35,-22.6,28.2
2012-04-23 01:10:00,0.0,1.9168,0.0008,402.61,0.38,317.8,37.4,138.09,29.37,24.62,36.36,0.04,-272.74,-272.74,-56,568,-926,25.3,4.6,-18.1,25.3,4.7,-17.8,5.73,2.39,-22.6,28.1
2012-04-23 01:11:00,0.0,1.9164,0.0008,402.57,0.37,320.5,30.3,138.09,29.37,24.63,36.36,0.04,-272.73,-272.74,-56,569,-927,25.3,4.5,-18.2,25.3,4.7,-17.7,5.73,2.23,-22.6,28.2
2012-04-23 01:12:00,0.0,1.9163,0.0007,402.59,0.39,319.1,28.9,138.09,29.38,24.62,36.36,0.04,-272.74,-272.74,-57,569,-927,25.3,4.6,-18.0,25.3,4.7,-17.7,5.73,2.37,-22.6,28.2
2012-04-23 01:13:00,0.0,1.9165,0.0009,402.68,0.34,321.1,33.5,138.09,29.39,24.62,36.36,0.04,-272.74,-272.74,-56,569,-927,25.3,4.6,-18.1,25.3,4.7,-17.7,5.73,2.37,-22.6,28.1
2012-04-23 01:14:00,0.0,1.9164,0.0008,402.75,0.35,324.4,35.1,138.09,29.39,24.62,36.35,0.04,-272.74,-272.74,-57,569,-927,25.3,4.5,-18.2,25.3,4.7,-17.8,5.73,2.23,-22.6,28.2
2012-04-23 01:15:00,0.0,1.9162,0.0008,402.66,0.41,320.9,33.3,138.09,29.40,24.62,36.35,0.04,-272.74,-272.73,-56,568,-927,25.4,4.5,-18.3,25.3,4.7,-17.8,5.73,2.39,-22.6,28.1
2012-04-23 01:16:00,0.0,1.9166,0.0010,402.71,0.42,324.8,27.3,138.09,29.40,24.62,36.35,0.04,-272.74,-272.74,-57,569,-927,25.4,4.5,-18.4,25.3,4.6,-17.9,5.73,2.34,-22.6,28.2
2012-04-23 01:17:00,0.0,1.9163,0.0010,402.78,0.35,324.0,31.9,138.09,29.41,24.62,36.35,0.04,-272.74,-272.74,-57,569,-927,25.4,4.5,-18.3,25.3,4.6,-17.9,5.73,2.24,-22.6,28.1
2012-04-23 01:18:00,0.0,1.9164,0.0010,402.66,0.31,320.6,31.3,138.09,29.41,24.62,36.36,0.04,-272.74,-272.74,-56,569,-927,25.4,4.4,-18.4,25.3,4.6,-17.9,5.73,2.41,-22.6,28.2
2012-04-23 01:19:00,0.0,1.9166,0.0009,402.79,0.38,317.5,24.8,138.09,29.42,24.62,36.35,0.27,-270.64,-272.39,-57,569,-927,25.4,4.4,-18.5,25.3,4.6,-18.1,5.42,2.39,-27.1,28.2
2012-04-23 01:20:00,0.0,1.9168,0.0011,402.75,0.36,322.5,30.0,138.09,29.43,24.62,36.35,0.04,-272.74,-272.74,-56,568,-927,25.4,4.4,-18.4,25.3,4.6,-18.1,5.73,2.26,-22.5,28.2
2012-04-23 01:21:00,0.0,1.9167,0.0010,402.65,0.42,310.5,31.2,138.09,29.43,24.62,36.35,0.04,-272.73,-272.74,-57,569,-927,25.4,4.4,-18.4,25.3,4.6,-18.0,5.73,2.41,-22.6,28.2
2012-04-23 01:22:00,0.0,1.9163,0.0010,402.67,0.44,311.5,33.9,138.09,29.44,24.62,36.36,0.04,-272.74,-272.74,-57,568,-927,25.4,4.4,-18.5,25.4,4.6,-18.0,5.73,2.28,-22.5,28.3
2012-04-23 01:23:00,0.0,1.9164,0.0007,402.61,0.40,323.2,27.1,138.09,29.44,24.62,36.36,0.04,-272.73,-272.74,-56,569,-927,25.4,4.5,-18.3,25.4,4.6,-18.0,5.73,2.30,-22.6,28.3
2012-04-23 01:24:00,0.0,1.9163,0.0009,402.74,0.41,320.0,36.7,138.09,29.45,24.62,36.35,0.04,-272.74,-272.74,-57,569,-927,25.4,4.4,-18.4,25.3,4.6,-17.9,5.73,2.41,-22.6,28.2
2012-04-23 01:25:00,0.0,1.9165,0.0013,402.68,0.43,320.6,36.2,138.09,29.46,24.62,36.35,0.04,-272.73,-272.74,-56,569,-927,25.4,4.5,-18.3,25.3,4.6,-18.0,5.73,2.24,-22.5,28.2
2012-04-23 01:26:00,0.0,1.9160,0.0009,402.70,0.40,314.9,32.4,138.09,29.46,24.62,36.35,0.04,-272.74,-272.74,-57,569,-927,25.4,4.5,-18.3,25.4,4.6,-17.9,5.73,2.34,-22.6,28.2
2012-04-23 01:27:00,0.0,1.9159,0.0010,402.55,0.34,323.7,28.7,138.09,29.47,24.62,36.36,0.04,-272.73,-272.73,-57,569,-927,25.4,4.4,-18.4,25.4,4.6,-18.0,5.73,2.39,-22.6,28.3
2012-04-23 01:28:00,0.0,1.9155,0.0009,402.58,0.38,326.1,33.7,138.09,29.48,24.62,36.36,0.04,-272.73,-272.74,-57,569,-927,25.4,4.4,-18.4,25.4,4.6,-18.0,5.73,2.24,-22.6,28.3
2012-04-23 01:29:00,0.0,1.9153,0.0008,402.58,0.37,312.3,31.6,138.09,29.48,24.62,36.35,0.04,-272.74,-272.74,-57,569,-927,25.5,4.4,-18.5,25.4,4.5,-18.1,5.73,2.38,-22.6,28.3
2012-04-23 01:30:00,0.0,1.9151,0.0009,402.58,0.40,319.0,30.7,138.09,29.49,24.62,36.36,0.04,-272.73,-272.73,-56,569,-927,25.5,4.3,-18.6,25.4,4.5,-18.2,5.73,2.35,-22.6,28.3
2012-04-23 01:31:00,0.0,1.9152,0.0010,402.63,0.38,319.6,30.8,138.09,29.50,24.62,36.36,0.04,-272.73,-272.73,-57,569,-927,25.5,4.4,-18.5,25.4,4.6,-18.1,5.73,2.25,-22.5,28.3
2012-04-23 01:32:00,0.0,1.9150,0.0009,402.69,0.36,318.3,37.5,138.09,29.50,24.63,36.35,0.04,-272.74,-272.74,-56,569,-927,25.5,4.3,-18.6,25.4,4.5,-18.2,5.73,2.41,-22.6,28.4
2012-04-23 01:33:00,0.0,1.9151,0.0010,402.60,0.35,317.0,32.2,138.09,29.51,24.62,36.36,0.04,-272.74,-272.74,-57,569,-927,25.5,4.3,-18.7,25.4,4.5,-18.2,5.73,2.30,-22.5,28.4
2012-04-23 01:34:00,0.0,1.9147,0.0008,402.50,0.45,322.7,34.2,138.09,29.51,24.62,36.37,0.04,-272.73,-272.74,-57,569,-927,25.5,4.3,-18.7,25.5,4.5,-18.3,5.73,2.27,-22.5,28.4
2012-04-23 01:35:00,0.0,1.9149,0.0009,402.51,0.40,315.7,30.6,138.09,29.52,24.63,36.36,0.04,-272.73,-272.74,-56,569,-927,25.5,4.3,-18.7,25.5,4.5,-18.3,5.73,2.42,-22.6,28.4
2012-04-23 01:36:00,0.0,1.9151,0.0008,402.53,0.29,320.8,36.3,138.09,29.52,24.62,36.36,0.04,-272.73,-272.74,-57,569,-927,25.5,4.3,-18.7,25.5,4.5,-18.3,5.73,2.27,-22.6,28.4
2012-04-23 01:37:00,0.0,1.9149,0.0009,402.54,0.35,319.8,31.1,138.09,29.53,24.62,36.36,0.04,-272.73,-272.74,-56,569,-927,25.5,4.2,-18.8,25.5,4.4,-18.3,5.73,2.31,-22.6,28.4
2012-04-23 01:38:00,0.0,1.9150,0.0010,402.59,0.40,316.1,30.3,138.09,29.54,24.62,36.36,0.04,-272.73,-272.74,-57,569,-927,25.5,4.3,-18.8,25.5,4.4,-18.4,5.73,2.41,-22.6,28.4
2012-04-23 01:39:00,0.0,1.9150,0.0009,402.60,0.37,319.2,33.2,138.09,29.54,24.62,36.36,0.04,-272.74,-272.74,-57,569,-927,25.5,4.2,-18.9,25.5,4.4,-18.4,5.73,2.24,-22.6,28.4
2012-04-23 01:40:00,0.0,1.9147,0.0008,402.67,0.34,315.3,30.8,138.09,29.54,24.62,36.35,0.04,-272.74,-272.74,-57,569,-927,25.5,4.2,-19.0,25.5,4.3,-18.6,5.73,2.34,-22.5,28.4
2012-04-23 01:41:00,0.0,1.9147,0.0010,402.57,0.37,312.9,31.5,138.09,29.55,24.62,36.36,0.04,-272.73,-272.74,-57,569,-927,25.5,4.2,-19.0,25.5,4.4,-18.6,5.73,2.39,-22.5,28.5
2012-04-23 01:42:00,0.0,1.9148,0.0010,402.60,0.39,319.9,29.2,138.09,29.56,24.62,36.36,0.04,-272.74,-272.74,-56,569,-927,25.5,4.2,-19.0,25.5,4.3,-18.6,5.73,2.24,-22.6,28.5
2012-04-23 01:43:00,0.0,1.9145,0.0009,402.56,0.37,311.8,25.6,138.09,29.56,24.62,36.36,0.04,-272.74,-272.74,-57,570,-927,25.5,4.1,-19.1,25.5,4.3,-18.7,5.73,2.33,-22.6,28.4
2012-04-23 01:44:00,0.0,1.9147,0.0009,402.55,0.32,318.2,32.7,138.09,29.57,24.62,36.36,0.04,-272.74,-272.74,-57,569,-927,25.5,4.1,-19.2,25.5,4.3,-18.7,5.73,2.39,-22.6,28.4
2012-04-23 01:45:00,0.0,1.9145,0.0009,402.68,0.37,312.7,30.8,138.09,29.57,24.62,36.36,0.04,-272.74,-272.73,-57,569,-927,25.5,4.1,-19.1,25.5,4.3,-18.7,5.73,2.23,-22.6,28.3
2012-04-23 01:46:00,0.0,1.9147,0.0010,402.61,0.30,311.7,28.7,138.09,29.58,24.62,36.36,0.04,-272.74,-272.74,-57,569,-927,25.6,4.2,-19.0,25.5,4.3,-18.6,5.73,2.38,-22.6,28.4
2012-04-23 01:47:00,0.0,1.9149,0.0009,402.60,0.36,315.1,31.2,138.09,29.59,24.62,36.36,0.04,-272.73,-272.73,-56,569,-927,25.6,4.1,-19.1,25.5,4.3,-18.7,5.73,2.35,-22.6,28.3
2012-04-23 01:48:00,0.0,1.9145,0.0009,402.66,0.38,312.3,24.9,138.09,29.60,24.63,36.36,0.04,-272.73,-272.74,-57,569,-927,25.6,4.1,-19.3,25.5,4.2,-18.8,5.73,2.24,-22.6,28.3
2012-04-23 01:49:00,0.0,1.9143,0.0009,402.59,0.34,308.5,33.3,138.09,29.60,24.63,36.36,0.04,-272.74,-272.74,-57,569,-927,25.6,4.1,-19.2,25.5,4.2,-18.8,5.73,2.40,-22.6,28.4
2012-04-23 01:50:00,0.0,1.9146,0.0007,402.69,0.35,310.9,30.9,138.09,29.61,24.62,36.36,0.04,-272.73,-272.73,-57,569,-927,25.6,4.1,-19.2,25.5,4.2,-18.9,5.73,2.31,-22.6,28.4
2012-04-23 01:51:00,0.0,1.9147,0.0010,402.58,0.36,305.7,29.3,138.09,29.62,24.62,36.36,0.04,-272.73,-272.74,-57,569,-928,25.6,4.0,-19.3,25.5,4.2,-18.9,5.73,2.27,-22.6,28.4
2012-04-23 01:52:00,0.0,1.9144,0.0008,402.63,0.43,311.6,27.8,138.09,29.62,24.62,36.36,0.04,-272.73,-272.74,-56,569,-927,25.6,4.1,-19.2,25.5,4.3,-18.8,5.73,2.42,-22.6,28.4
2012-04-23 01:53:00,0.0,1.9149,0.0010,402.53,0.34,309.4,25.5,138.09,29.63,24.62,36.36,0.04,-272.74,-272.74,-57,569,-927,25.6,4.1,-19.3,25.5,4.2,-18.8,5.73,2.26,-22.6,28.5
2012-04-23 01:54:00,0.0,1.9148,0.0010,402.63,0.31,308.9,31.0,138.09,29.63,24.62,36.36,0.04,-272.74,-272.74,-56,570,-928,25.6,4.1,-19.3,25.6,4.2,-18.8,5.73,2.32,-22.6,28.4
2012-04-23 01:55:00,0.0,1.9145,0.0008,402.53,0.35,304.1,29.1,138.09,29.64,24.62,36.36,0.04,-272.74,-272.74,-57,570,-927,25.6,4.1,-19.3,25.6,4.2,-18.8,5.73,2.40,-22.6,28.4
2012-04-23 01:56:00,0.0,1.9146,0.0009,402.62,0.33,307.7,30.0,138.09,29.65,24.62,36.36,0.04,-272.74,-272.74,-57,569,-927,25.6,4.1,-19.2,25.6,4.3,-18.7,5.73,2.25,-22.6,28.4
2012-04-23 01:57:00,0.0,1.9146,0.0009,402.73,0.26,303.5,34.1,138.09,29.65,24.62,36.35,0.04,-272.73,-272.74,-57,570,-928,25.6,4.1,-19.1,25.6,4.3,-18.7,5.73,2.32,-22.6,28.3
2012-04-23 01:58:00,0.0,1.9145,0.0008,402.76,0.41,304.2,27.9,138.09,29.66,24.62,36.35,0.04,-272.73,-272.74,-57,569,-927,25.6,4.1,-19.3,25.6,4.2,-18.8,5.73,2.41,-22.6,28.3
2012-04-23 01:59:00,0.0,1.9145,0.0008,402.67,0.33,299.5,32.1,138.09,29.66,24.62,36.36,0.04,-272.74,-272.74,-56,569,-927,25.6,4.0,-19.4,25.6,4.2,-18.9,5.73,2.25,-22.6,28.4
2012-04-23 02:00:00,0.0,1.9145,0.0010,402.62,0.35,302.5,31.6,138.09,29.67,24.63,36.36,0.04,-272.73,-272.74,-57,570,-928,25.6,4.1,-19.3,25.6,4.2,-19.0,5.73,2.34,-22.6,28.4
2012-04-23 02:01:00,0.0,1.9146,0.0008,402.69,0.31,313.6,28.4,138.09,29.68,24.63,36.36,0.04,-272.74,-272.73,-57,569,-927,25.6,4.0,-19.3,25.6,4.2,-18.9,5.73,2.39,-22.6,28.4
2012-04-23 02:02:00,0.0,1.9145,0.0011,402.64,0.32,307.7,36.1,138.09,29.68,24.62,36.36,0.04,-272.74,-272.74,-57,570,-928,25.7,4.0,-19.3,25.6,4.2,-19.0,5.73,2.23,-22.6,28.4
2012-04-23 02:03:00,0.0,1.9146,0.0010,402.71,0.37,298.3,30.8,138.09,29.69,24.63,36.36,0.04,-272.73,-272.74,-57,570,-928,25.7,4.0,-19.3,25.6,4.2,-19.0,5.73,2.39,-22.6,28.4
2012-04-23 02:04:00,0.0,1.9146,0.0011,402.64,0.37,303.6,31.4,138.09,29.69,24.62,36.36,0.04,-272.74,-272.74,-57,570,-927,25.6,4.0,-19.4,25.6,4.2,-19.0,5.73,2.34,-22.6,28.4
2012-04-23 02:05:00,0.0,1.9146,0.0008,402.66,0.36,306.3,28.1,138.09,29.70,24.62,36.36,0.04,-272.73,-272.74,-57,570,-928,25.7,4.0,-19.3,25.6,4.2,-18.9,5.73,2.25,-22.6,28.5
2012-04-23 02:06:00,0.0,1.9147,0.0008,402.68,0.32,301.9,33.6,138.09,29.70,24.62,36.36,0.04,-272.74,-272.74,-57,570,-928,25.7,4.1,-19.2,25.6,4.2,-18.9,5.73,2.40,-22.6,28.5
2012-04-23 02:07:00,0.0,1.9145,0.0008,402.62,0.35,299.2,28.4,138.09,29.71,24.62,36.36,0.04,-272.73,-272.74,-57,570,-928,25.7,4.0,-19.3,25.6,4.2,-18.9,5.73,2.32,-22.6,28.4
2012-04-23 02:08:00,0.0,1.9144,0.0009,402.69,0.38,302.3,29.6,138.09,29.72,24.62,36.36,0.04,-272.74,-272.74,-57,569,-928,25.7,4.0,-19.4,25.6,4.2,-18.9,5.73,2.25,-22.6,28.4
2012-04-23 02:09:00,0.0,1.9142,0.0008,402.58,0.35,302.4,33.3,138.09,29.72,24.63,36.36,0.04,-272.74,-272.74,-56,570,-928,25.7,4.0,-19.4,25.7,4.2,-18.9,5.73,2.41,-22.6,28.4
2012-04-23 02:10:00,0.0,1.9148,0.0009,402.65,0.33,305.2,35.4,138.09,29.73,24.62,36.36,0.04,-272.74,-272.74,-57,570,-928,25.7,4.1,-19.2,25.6,4.2,-18.8,5.73,2.29,-22.6,28.4
2012-04-23 02:11:00,0.0,1.9145,0.0009,402.55,0.33,299.8,30.5,138.09,29.74,24.62,36.36,0.04,-272.73,-272.73,-57,570,-928,25.7,4.1,-19.2,25.7,4.2,-18.7,5.73,2.29,-22.6,28.4
2012-04-23 02:12:00,0.0,1.9142,0.0009,402.64,0.34,297.6,31.5,138.08,29.74,24.62,36.36,0.04,-272.74,-272.74,-57,570,-928,25.7,4.0,-19.4,25.7,4.1,-19.0,5.73,2.41,-22.6,28.4
2012-04-23 02:13:00,0.0,1.9146,0.0008,402.64,0.36,298.1,32.8,138.09,29.75,24.63,36.36,0.04,-272.74,-272.73,-57,570,-928,25.7,4.0,-19.5,25.7,4.1,-19.1,5.73,2.24,-22.6,28.5
2012-04-23 02:14:00,0.0,1.9143,0.0009,402.64,0.34,296.7,26.0,138.08,29.75,24.63,36.36,0.04,-272.74,-272.74,-57,570,-928,25.7,4.0,-19.4,25.7,4.2,-18.9,5.73,2.35,-22.6,28.5
2012-04-23 02:15:00,0.0,1.9145,0.0010,402.60,0.32,295.9,29.7,138.08,29.76,24.62,36.37,0.04,-272.73,-272.73,-57,570,-928,25.7,4.0,-19.4,25.7,4.2,-19.0,5.73,2.37,-22.6,28.6
2012-04-23 02:16:00,0.0,1.9144,0.0009,402.57,0.37,295.4,32.5,138.09,29.76,24.63,36.36,0.04,-272.74,-272.74,-57,570,-928,25.7,3.9,-19.5,25.7,4.1,-19.2,5.73,2.23,-22.6,28.6